Regional Weather Roundup
Issued by NWS

Home | Current Version | Previous Version | Graphics & Text | Print | Product List | Glossary On
Versions: 1 2 3 4 5 6 7 8 9 10 11 12 13 14 15 16 17 18 19 20 21 22 23 24 25 26 27 28 29 30 31 32 33 34 35 36 37 38 39 40 41 42 43 44 45 46 47 48 49 50
000
ASUS44 KMEG 201710
RWRTN
TENNESSEE HOURLY STATE WEATHER ROUNDUP
NATIONAL WEATHER SERVICE MEMPHIS TN
1200 PM CDT SUN APR 20 2014

TNZ002-004-019-021-049-052-054-088>092-201800-
WEST TENNESSEE

CITY           SKY/WX    TMP DP  RH WIND       PRES   REMARKS
MEMPHIS INTL   MOSUNNY   76  48  37 S7        30.21F
NWS MEMPHIS      N/A     77 N/A N/A MISG        N/A
JACKSON        SUNNY     75  44  33 W7        30.21F
DYERSBURG      SUNNY     75  46  35 SE8       30.21F
UNION CITY     SUNNY     73  46  38 VRB6      30.20F
PARIS          MOSUNNY   74  42  31 VRB3      30.22
LEXINGTON      SUNNY     73  48  40 S7        30.21F
$$

TNZ008-025-027-028-033-062-065-066-201800-
NORTH MIDDLE TENNESSEE

CITY           SKY/WX    TMP DP  RH WIND       PRES   REMARKS
NASHVILLE      MOSUNNY   77  45  32 VRB5      30.22F
DICKSON        SUNNY     73  39  29 SW8       30.21F
PORTLAND         N/A     72  43  35 VRB3      30.21S
CLARKSVILLE    MOSUNNY   75  39  27 CALM      30.21F
SMYRNA         SUNNY     75  46  35 VRB3      30.23F
MURFREESBORO   SUNNY     74  47  38 S7        30.22F
COOKEVILLE     SUNNY     73  43  33 S5        30.22F
LIVINGSTON     SUNNY     71  40  32 W5        30.23F
GALLATIN       SUNNY     73  47  39 CALM      30.23F
CROSSVILLE     SUNNY     69  36  29 MISG      30.25F
$$

TNZ061-075-076-078-094-096-097-201800-
SOUTH MIDDLE TENNESSEE

CITY           SKY/WX    TMP DP  RH WIND       PRES   REMARKS
LEWISBURG      SUNNY     74  50  42 SW7       30.23S
FAYETTEVILLE   SUNNY     68  46  45 CALM      30.25S
TULLAHOMA      SUNNY     72  45  37 CALM      30.24F
WINCHESTER     SUNNY     70  46  43 N6        30.24S
MCMINNVILLE    SUNNY     72  46  40 SW3       30.23F
COLUMBIA       SUNNY     75  55  50 S3        30.21F
SHELBYVILLE    SUNNY     73  52  46 SE6       30.25S
$$

TNZ017-018-042-046-047-201800-
NORTHEAST TENNESSEE

CITY           SKY/WX    TMP DP  RH WIND       PRES   REMARKS
TRI CITIES     MOSUNNY   67  30  25 VRB3      30.26F
ELIZABETHTON   SUNNY     66  34  30 CALM      30.24F
$$

TNZ012-013-036-069-073-074-201800-
CENTRAL EAST TENNESSEE

CITY           SKY/WX    TMP DP  RH WIND       PRES   REMARKS
KNOXVILLE      MOSUNNY   68  45  43 VRB3      30.23F
OAK RIDGE      SUNNY     71  43  36 CALM      30.24F
$$

TNZ083-085-099-201800-
SOUTHEAST TENNESSEE

CITY           SKY/WX    TMP DP  RH WIND       PRES   REMARKS
CHATTANOOGA    MOSUNNY   70  44  39 CALM      30.23F
$$

SKY/WX REPORTED AS FAIR MEANS FEW OR NO CLOUDS BELOW
12 THOUSAND FEET.




USA.gov is the U.S. government's official web portal to all federal, state and local government web resources and services.